Погода в Кузьмичах

Россия / Смоленская область     53°32′55″N   32°34′45″E
темп.,
°C
ветер,
м/с
пор.,
м/с
влажн.,
%
обл.,
%
осадки,
мм/ч
давл.,
гПа
погр.,
м
27 сентября, пн
пн2700:00+7ссз6129348 0.0 1020483
03:00+8с5978100 0.0 1021743
06:00+8ссз4985100 0.0 1022382
09:00+9с6108695 0.0 1023625
12:00+11ссв577374 0.0 1024695
15:00+14ссв576086 0.2 10231514
18:00+11ссв3775100 0.2 1024165
21:00+7ссв38925 0.3 1025202
28 сентября, вт
вт2800:00+6с339222 0.0 102646
03:00+8с3780100 0.0 1026217
06:00+8ссв3888100 0.1 1026249
09:00+9св488791 0.1 1027491
12:00+11всв567598 0.2 1028988
15:00+9всв4680100 0.3 1029706
18:00+8всв577583 0.1 1031577
21:00+7всв4879100 0.1 1032570
29 сентября, ср
ср2900:00+7в3881100 0.0 1034485
03:00+6всв368299 0.0 1034246
06:00+3всв35915 0.0 103579
09:00+5в35755 0.0 1036250
12:00+9в346044 0.0 1036987
15:00+11в235166 0.0 10341167
18:00+8всв2267100 0.0 103421
21:00+6в2273100 0.0 103516
30 сентября, чт
чт3000:00+5вюв2277100 0.0 103611
03:00+4вюв228099 0.0 103611
06:00+3вюв228448 0.0 103610
09:00+6вюв2373100 0.0 1036154
12:00+10юв3457100 0.0 1036677
15:00+12ююв3451100 0.0 10351011
18:00+8юв226896 0.0 103421
21:00+6юв227770 0.0 103518
1 октября, пт
пт100:00+5ююв227936 0.0 103619
03:00+4ююв22835 0.0 103623
06:00+3ююв33855 0.0 103632
09:00+6ююв35735 0.0 1036182
12:00+11ю45555 0.0 1035714
15:00+13ю45500 0.0 10341112
18:00+9ююв33695 0.0 103331
21:00+6ююв34785 0.0 103457